K5TWC Weather Reports


time (UTC)temp
F
wind
direction
speed
knots
gust
knots
rain 1hr
in
rain 24hr
in
rain mn
in
humidity
%
barometer
mb
20260502164015 70 346 0.0 9.6 0.00 0.00 0.00 39 1022.8
20260502163511 70 324 2.6 9.6 0.00 0.00 0.00 41 1022.8
20260502163015 70 360 0.9 7.0 0.00 0.00 0.00 41 1022.8
20260502162504 70 36 1.7 7.0 0.00 0.00 0.00 39 1022.7
20260502162007 70 340 0.9 6.1 0.00 0.00 0.00 38 1022.8
20260502161517 70 352 2.6 6.1 0.00 0.00 0.00 35 1022.8
20260502161004 70 323 0.9 5.2 0.00 0.00 0.00 35 1022.8
20260502160508 70 10 0.9 3.5 0.00 0.00 0.00 35 1022.7
20260502152010 67 53 0.0 4.3 0.00 0.00 0.00 50 1022.5
20260502151515 67 36 0.9 4.3 0.00 0.00 0.00 49 1022.4
20260502151004 66 360 0.0 3.5 0.00 0.00 0.00 54 1022.5
20260502150504 66 315 0.9 5.2 0.00 0.00 0.00 54 1022.4
20260502130502 55 269 0.0 1.7 0.00 0.00 0.00 82 1021.7
20260502123503 52 260 0.0 1.7 0.00 0.00 0.00 90 1021.3
20260502123005 52 259 0.0 1.7 0.00 0.00 0.00 91 1021.2
20260502122503 51 360 0.0 1.7 0.00 0.00 0.00 91 1021.1
20260502122007 51 259 0.0 0.0 0.00 0.00 0.00 90 1020.9
20260502121504 51 259 0.0 0.0 0.00 0.00 0.00 90 1020.9
20260502121004 51 259 0.0 0.0 0.00 0.00 0.00 90 1020.8
20260502120504 51 259 0.0 0.0 0.00 0.00 0.00 90 1020.7
20260502115503 51 259 0.0 0.9 0.00 0.00 0.00 90 1020.5
20260502115006 51 259 0.0 0.9 0.00 0.00 0.00 89 1020.4
20260502114506 51 259 0.0 0.0 0.00 0.00 0.00 89 1020.3
20260502114003 51 259 0.0 0.0 0.00 0.00 0.00 89 1020.3
20260502113503 52 259 0.0 0.9 0.00 0.00 0.00 89 1020.3
20260502113013 52 259 0.0 0.9 0.00 0.00 0.00 89 1020.2
20260502112502 52 259 0.0 1.7 0.00 0.00 0.00 89 1020.0
20260502112004 52 259 0.0 1.7 0.00 0.00 0.00 89 1020.1
20260502111506 52 259 0.0 0.9 0.00 0.00 0.00 89 1020.1
20260502111002 52 259 0.0 2.6 0.00 0.00 0.00 90 1020.1
20260502110502 52 259 0.0 2.6 0.00 0.00 0.00 89 1019.9
20260502110004 52 258 0.0 2.6 0.00 0.00 0.00 89 1020.0
20260502105504 52 258 0.0 2.6 0.00 0.00 0.00 90 1019.9
20260502105004 51 257 0.0 1.7 0.00 0.00 0.00 89 1019.8
20260502104506 51 257 0.0 1.7 0.00 0.00 0.00 90 1019.6
20260502104003 51 257 0.0 1.7 0.00 0.00 0.00 90 1019.5
20260502103503 51 255 0.0 1.7 0.00 0.00 0.00 90 1019.6
20260502103004 51 255 0.0 1.7 0.00 0.00 0.00 90 1019.5
20260502102504 51 254 0.0 0.9 0.00 0.00 0.00 89 1019.4
20260502102004 51 255 0.0 0.0 0.00 0.00 0.00 89 1019.4
20260502101509 52 255 0.0 0.9 0.00 0.00 0.00 89 1019.5
20260502101003 52 255 0.0 0.9 0.00 0.00 0.00 89 1019.5
20260502100508 52 255 0.0 0.9 0.00 0.00 0.00 89 1019.5
20260502091506 52 240 0.0 1.7 0.00 0.00 0.00 89 1019.4
20260502091002 52 240 0.0 0.9 0.00 0.00 0.00 89 1019.4
20260502090503 52 240 0.0 0.9 0.00 0.00 0.00 89 1019.4
20260502071509 52 159 0.0 0.0 0.00 0.00 0.00 90 1019.3
20260502071007 52 159 0.0 0.0 0.00 0.00 0.00 90 1019.4
20260502070504 52 159 0.0 0.0 0.00 0.00 0.00 90 1019.4
20260502070018 52 159 0.0 0.9 0.00 0.00 0.00 90 1019.5
20260502065503 52 159 0.0 0.9 0.00 0.00 0.00 90 1019.5
20260502065007 52 159 0.0 0.9 0.00 0.00 0.00 90 1019.6
20260502064525 52 142 0.0 0.0 0.00 0.00 0.00 90 1019.6
20260502064004 53 142 0.0 0.0 0.00 0.00 0.00 90 1019.7
20260502063504 53 142 0.0 0.0 0.00 0.00 0.00 89 1019.6
20260502063012 53 141 0.0 0.0 0.00 0.00 0.00 89 1019.6
20260502062505 53 141 0.0 0.0 0.00 0.00 0.00 89 1019.5
20260502062006 53 141 0.0 0.0 0.00 0.00 0.00 89 1019.5
20260502061509 53 141 0.0 0.0 0.00 0.00 0.00 89 1019.5
20260502061001 53 141 0.0 0.0 0.00 0.00 0.00 89 1019.5
20260502060505 53 141 0.0 0.0 0.00 0.00 0.00 89 1019.5
20260502060012 54 141 0.0 0.0 0.00 0.00 0.00 89 1019.4
20260502055505 54 141 0.0 0.0 0.00 0.00 0.00 89 1019.6
20260502055007 54 141 0.0 0.0 0.00 0.00 0.00 88 1019.5
20260502054513 54 141 0.0 0.0 0.00 0.00 0.00 88 1019.5
20260502054004 54 141 0.0 0.0 0.00 0.00 0.00 88 1019.5
20260502053504 54 141 0.0 0.0 0.00 0.00 0.00 87 1019.4
20260502053012 54 141 0.0 0.0 0.00 0.00 0.00 87 1019.5
20260502052502 54 141 0.0 0.0 0.00 0.00 0.00 87 1019.5
20260502052002 54 141 0.0 0.0 0.00 0.00 0.00 87 1019.6
20260502051512 55 142 0.0 0.0 0.00 0.00 0.00 87 1019.6
20260502051005 55 141 0.0 0.0 0.00 0.00 0.00 87 1019.5
20260502050503 55 142 0.0 0.0 0.00 0.00 0.00 87 1019.5
20260502050012 55 141 0.0 0.0 0.00 0.00 0.00 87 1019.5
20260502045503 55 141 0.0 0.0 0.00 0.00 0.00 87 1019.5
20260502045003 55 141 0.0 0.0 0.00 0.00 0.00 87 1019.5
20260502044512 55 141 0.0 0.0 0.00 0.00 0.00 86 1019.4
20260502044002 55 141 0.0 0.0 0.00 0.00 0.00 86 1019.4
20260502043505 56 141 0.0 0.0 0.00 0.00 0.00 86 1019.4
20260502043015 56 141 0.0 0.0 0.00 0.00 0.00 85 1019.5
20260502042507 56 141 0.0 0.0 0.00 0.00 0.00 84 1019.4
20260502042007 56 141 0.0 0.0 0.00 0.00 0.00 84 1019.3
20260502041515 56 141 0.0 0.0 0.00 0.00 0.00 84 1019.3
20260502041005 57 141 0.0 0.0 0.00 0.00 0.00 84 1019.3
20260502040506 57 141 0.0 0.0 0.00 0.00 0.00 83 1019.4
20260502040018 57 141 0.0 0.0 0.00 0.00 0.00 83 1019.3
20260502035505 57 141 0.0 0.0 0.00 0.00 0.00 82 1019.4
20260502035006 58 141 0.0 0.0 0.00 0.00 0.00 82 1019.3
20260502034516 58 141 0.0 0.0 0.00 0.00 0.00 82 1019.4
20260502034006 58 141 0.0 0.0 0.00 0.00 0.00 81 1019.5
20260502033505 58 141 0.0 0.0 0.00 0.00 0.00 80 1019.4
20260502033015 58 141 0.0 0.0 0.00 0.00 0.00 78 1019.3
20260502032503 59 141 0.0 0.0 0.00 0.00 0.00 78 1019.3
20260502032006 59 141 0.0 0.0 0.00 0.00 0.00 77 1019.2
20260502031514 59 141 0.0 0.0 0.00 0.00 0.00 77 1019.2
20260502031007 59 141 0.0 0.0 0.00 0.00 0.00 77 1019.1
20260502030507 59 141 0.0 0.0 0.00 0.00 0.00 78 1019.1
20260502030015 60 141 0.0 0.0 0.00 0.00 0.00 78 1019.1
20260502025503 60 141 0.0 0.0 0.00 0.00 0.00 78 1019.2
20260502025003 60 141 0.0 0.0 0.00 0.00 0.00 78 1019.1
20260502024508 60 141 0.0 0.0 0.00 0.00 0.00 77 1019.1
20260502024003 60 141 0.0 0.0 0.00 0.00 0.00 76 1018.9
20260502023503 60 141 0.0 0.0 0.00 0.00 0.00 73 1018.9
20260502023012 60 141 0.0 0.0 0.00 0.00 0.00 73 1018.8
20260502022504 60 141 0.0 0.0 0.00 0.00 0.00 73 1018.8
20260502022003 60 141 0.0 0.0 0.00 0.00 0.00 73 1018.8
20260502021518 60 141 0.0 0.0 0.00 0.00 0.00 74 1018.7
20260502021003 60 141 0.0 0.0 0.00 0.00 0.00 73 1018.6
20260502020502 61 140 0.0 0.0 0.00 0.00 0.00 73 1018.5
20260502020009 61 140 0.0 0.0 0.00 0.00 0.00 73 1018.3
20260502015504 61 140 0.0 0.0 0.00 0.00 0.00 73 1018.0
20260502015007 61 141 0.0 0.0 0.00 0.00 0.00 73 1018.0
20260502014504 61 140 0.0 0.0 0.00 0.00 0.00 73 1017.9
20260502014003 61 140 0.0 0.0 0.00 0.00 0.00 73 1017.8
20260502013504 61 140 0.0 0.0 0.00 0.00 0.00 73 1017.8
20260502013008 61 141 0.0 0.9 0.00 0.00 0.00 73 1017.7
20260502012503 61 140 0.0 0.9 0.00 0.00 0.00 73 1017.6
20260502012010 62 140 0.0 0.9 0.00 0.00 0.00 73 1017.5
20260502011535 62 140 0.0 1.7 0.00 0.00 0.00 72 1017.4
20260502011004 62 141 0.0 1.7 0.00 0.00 0.00 71 1017.3
20260502010504 62 141 0.0 0.9 0.00 0.00 0.00 71 1017.2
20260502010022 62 141 0.0 0.9 0.00 0.00 0.00 70 1017.2
20260502005506 62 141 0.0 0.9 0.00 0.00 0.00 70 1017.1
20260502005005 62 141 0.0 0.9 0.00 0.00 0.00 69 1017.2
20260502004504 62 141 0.0 0.0 0.00 0.00 0.00 69 1017.1
20260502004003 62 140 0.0 0.9 0.00 0.00 0.00 69 1017.2
20260502003503 62 140 0.0 0.9 0.00 0.00 0.00 69 1017.1
20260502003007 62 139 0.0 0.9 0.00 0.00 0.00 69 1017.0
20260502002508 62 138 0.0 0.0 0.00 0.00 0.00 69 1016.9
20260502002006 62 138 0.0 0.9 0.00 0.00 0.00 69 1016.8
20260502001515 62 138 0.0 0.9 0.00 0.00 0.00 68 1016.7
20260502001008 63 138 0.0 2.6 0.00 0.00 0.00 68 1016.5
20260502000504 63 138 0.0 2.6 0.00 0.00 0.00 68 1016.4
20260502000017 63 138 0.0 2.6 0.00 0.00 0.00 68 1016.4
20260501235511 63 146 0.0 3.5 0.00 0.00 0.00 68 1016.4
20260501235007 63 146 0.9 3.5 0.00 0.00 0.00 68 1016.4
20260501234519 63 160 0.0 3.5 0.00 0.00 0.00 68 1016.3
20260501234006 63 130 0.9 3.5 0.00 0.00 0.00 68 1016.3
20260501233503 63 124 0.0 3.5 0.00 0.00 0.00 68 1016.3
20260501233005 63 123 0.0 3.5 0.00 0.00 0.00 67 1016.2
20260501232507 63 123 0.0 2.6 0.00 0.00 0.00 67 1016.0
20260501232002 63 126 0.0 2.6 0.00 0.00 0.00 67 1015.9
20260501231514 63 117 0.0 1.7 0.00 0.00 0.00 67 1016.0
20260501231003 63 117 0.0 0.9 0.00 0.00 0.00 67 1015.9
20260501230506 63 117 0.0 1.7 0.00 0.00 0.00 67 1015.9
20260501230012 63 117 0.0 3.5 0.00 0.00 0.00 66 1016.0
20260501225505 63 128 0.0 3.5 0.00 0.00 0.00 65 1016.0
20260501225007 63 128 0.9 3.5 0.00 0.00 0.00 65 1016.0
20260501224518 63 113 0.9 4.3 0.00 0.00 0.00 64 1015.9
20260501224006 63 100 0.0 4.3 0.00 0.00 0.00 64 1015.9
20260501223506 63 58 0.0 3.5 0.00 0.00 0.00 65 1015.8
20260501223021 63 360 0.9 3.5 0.00 0.00 0.00 65 1015.9
20260501222507 63 94 0.0 3.5 0.00 0.00 0.00 65 1015.9
20260501222009 63 86 0.0 3.5 0.00 0.00 0.00 65 1016.0
20260501221503 63 102 0.0 3.5 0.00 0.00 0.00 65 1015.9
20260501221003 63 76 0.0 3.5 0.00 0.00 0.00 65 1015.8
20260501220503 63 79 0.0 5.2 0.00 0.00 0.00 64 1015.9
20260501220011 63 105 0.0 6.1 0.00 0.00 0.00 64 1016.0
20260501215506 63 126 1.7 6.1 0.00 0.00 0.00 63 1015.9
20260501215004 63 90 0.9 7.0 0.00 0.00 0.00 62 1015.9
20260501214516 63 102 1.7 7.8 0.00 0.00 0.00 62 1015.9
20260501214013 63 86 2.6 9.6 0.00 0.00 0.00 62 1015.8
20260501213506 63 58 3.5 11.3 0.00 0.00 0.00 62 1015.9
20260501213028 63 360 4.3 11.3 0.00 0.00 0.00 62 1015.9
20260501212506 63 360 3.5 10.4 0.00 0.00 0.00 62 1015.8
20260501212006 63 78 2.6 7.0 0.00 0.00 0.00 64 1016.0
20260501211523 63 98 1.7 7.8 0.00 0.00 0.00 63 1015.9
20260501211009 63 34 2.6 7.8 0.00 0.00 0.00 62 1015.8
20260501210504 63 55 3.5 9.6 0.00 0.00 0.00 63 1016.0
20260501210008 63 77 3.5 9.6 0.00 0.00 0.00 62 1016.2
20260501205504 63 105 1.7 8.7 0.00 0.00 0.00 62 1016.3
20260501205003 63 360 1.7 8.7 0.00 0.00 0.00 61 1016.5
20260501204512 63 77 3.5 8.7 0.00 0.00 0.00 62 1016.4
20260501204005 63 9 3.5 8.7 0.00 0.00 0.00 63 1016.5
20260501203506 63 360 1.7 7.8 0.00 0.00 0.00 64 1016.3
20260501203018 63 32 1.7 7.8 0.00 0.00 0.00 63 1016.5
20260501202508 63 119 1.7 7.8 0.00 0.00 0.00 62 1016.8
20260501202005 63 98 2.6 7.8 0.00 0.00 0.00 61 1017.0
20260501201522 63 80 1.7 7.0 0.00 0.00 0.00 62 1016.8
20260501201010 63 360 2.6 7.0 0.00 0.00 0.00 61 1016.9
20260501200517 63 360 2.6 9.6 0.00 0.00 0.00 61 1016.7
20260501200023 63 360 2.6 9.6 0.00 0.00 0.00 60 1016.5
20260501195507 63 360 4.3 10.4 0.00 0.00 0.00 60 1016.4
20260501195003 63 129 5.2 10.4 0.00 0.00 0.00 59 1016.1
20260501194512 63 49 2.6 9.6 0.00 0.00 0.00 60 1015.9
20260501194002 63 360 5.2 10.4 0.00 0.00 0.00 59 1016.2
20260501193505 63 71 2.6 10.4 0.00 0.00 0.00 61 1016.2
20260501193027 63 107 4.3 9.6 0.00 0.00 0.00 60 1016.2
20260501192507 62 108 3.5 11.3 0.00 0.00 0.00 61 1016.2
20260501192006 62 360 4.3 11.3 0.00 0.00 0.00 60 1016.0
20260501191529 62 360 4.3 11.3 0.00 0.00 0.00 59 1015.8
20260501191011 62 65 6.1 11.3 0.00 0.00 0.00 58 1016.2
20260501190510 62 78 5.2 11.3 0.00 0.00 0.00 58 1016.2
20260501190044 63 360 3.5 9.6 0.00 0.00 0.00 58 1016.0
20260501185506 63 360 2.6 13.0 0.00 0.00 0.00 59 1016.1
20260501185006 63 360 5.2 13.0 0.00 0.00 0.00 58 1016.1
20260501184534 63 74 4.3 12.2 0.00 0.01 0.00 61 1016.2
20260501184012 63 52 4.3 10.4 0.00 0.01 0.00 61 1016.3
20260501183502 63 360 3.5 10.4 0.00 0.01 0.00 63 1016.3
20260501183018 63 360 4.3 13.9 0.00 0.01 0.00 63 1016.4
20260501182504 63 360 5.2 13.9 0.00 0.01 0.00 63 1016.7
20260501182004 63 360 5.2 12.2 0.00 0.01 0.00 61 1016.6
20260501181518 63 100 6.1 12.2 0.00 0.01 0.00 61 1016.7
20260501181008 63 360 4.3 9.6 0.00 0.01 0.00 63 1016.9
20260501180510 64 360 4.3 11.3 0.00 0.01 0.00 63 1017.0
20260501180020 64 360 5.2 11.3 0.00 0.01 0.00 62 1017.1
20260501175507 64 94 6.1 11.3 0.00 0.01 0.00 64 1017.0
20260501175006 63 360 5.2 11.3 0.00 0.01 0.00 64 1017.2
20260501174527 63 28 5.2 10.4 0.00 0.01 0.00 63 1017.2
20260501174008 63 18 3.5 11.3 0.00 0.01 0.00 66 1017.3
20260501173506 62 108 4.3 11.3 0.00 0.01 0.00 66 1017.4
20260501173025 62 87 4.3 11.3 0.00 0.01 0.00 66 1017.5
20260501172507 62 360 4.3 11.3 0.00 0.01 0.00 67 1017.4
20260501172004 62 360 5.2 9.6 0.00 0.01 0.00 68 1017.5
20260501171512 62 132 4.3 10.4 0.00 0.01 0.00 68 1017.7
20260501171004 62 93 5.2 10.4 0.00 0.01 0.00 67 1017.7
20260501170507 62 360 3.5 10.4 0.00 0.01 0.00 67 1017.7
20260501170021 62 72 1.7 10.4 0.00 0.01 0.00 70 1017.7